This is the latest recevied weather packets stored in our database for station/object DO2HBA-6. If no packets are shown the sender has not sent any weather packets the latest 10 day(s).
| Time | Temp. | Humidity | Pressure | Rain* | Wind** | Luminosity | Snow |
|---|---|---|---|---|---|---|---|
| 1777635831 | 21.67° C | 33% | 1027.1 hPa | 0 mm | - | - | - |
| 1777635531 | 21.67° C | 33% | 1027.2 hPa | 0 mm | - | - | - |
| 1777635230 | 21.11° C | 33% | 1027.2 hPa | 0 mm | - | - | - |
| 1777634930 | 21.11° C | 33% | 1027.1 hPa | 0 mm | - | - | - |
| 1777634630 | 21.11° C | 33% | 1027.1 hPa | 0 mm | - | - | - |
| 1777634330 | 20.56° C | 33% | 1027.4 hPa | 0 mm | - | - | - |
| 1777634029 | 21.11° C | 33% | 1027.4 hPa | 0 mm | - | - | - |
| 1777633729 | 20.56° C | 33% | 1027.4 hPa | 0 mm | - | - | - |
| 1777633429 | 20.56° C | 33% | 1027.3 hPa | 0 mm | - | - | - |
| 1777633128 | 20.56° C | 34% | 1027.4 hPa | 0 mm | - | - | - |
| 1777632828 | 20.56° C | 34% | 1027.6 hPa | 0 mm | - | - | - |
| 1777632528 | 20° C | 34% | 1027.5 hPa | 0 mm | - | - | - |
| 1777632228 | 20° C | 34% | 1027.5 hPa | 0 mm | - | - | - |
| 1777631927 | 20° C | 34% | 1027.6 hPa | 0 mm | - | - | - |
| 1777631627 | 19.44° C | 34% | 1027.7 hPa | 0 mm | - | - | - |
| 1777631327 | 19.44° C | 34% | 1027.8 hPa | 0 mm | - | - | - |
| 1777631026 | 18.89° C | 34% | 1027.8 hPa | 0 mm | - | - | - |
| 1777630726 | 18.33° C | 34% | 1027.9 hPa | 0 mm | - | - | - |
| 1777630426 | 18.33° C | 34% | 1028.1 hPa | 0 mm | - | - | - |
| 1777630126 | 18.89° C | 34% | 1028.1 hPa | 0 mm | - | - | - |
| 1777629825 | 18.89° C | 34% | 1028 hPa | 0 mm | - | - | - |
| 1777629525 | 18.89° C | 34% | 1028 hPa | 0 mm | - | - | - |
| 1777629225 | 18.33° C | 34% | 1028 hPa | 0 mm | - | - | - |
| 1777628924 | 18.33° C | 34% | 1028.1 hPa | 0 mm | - | - | - |
| 1777628624 | 18.33° C | 34% | 1028.1 hPa | 0 mm | - | - | - |
* Rain latest hour (hover to see other rain measurements)
** Current wind speed in m/s (hover to see current wind gust speed)